Location: Franzen
(48.6167°N, 15.3833°E)
Time: 23:54:00
(UTC+00:00)

Explorer 7 - Visible Passes

Search period start: 28 July 2021 00:00
Search period end: 07 August 2021 00:00
Orbit: 484 x 676 km, 50.3° (Epoch: 28 July)

Date Brightness Start Highest point End Pass type
(mag) Time Alt. Az. Time Alt. Az. Time Alt. Az.
03 Aug 9.1 02:09:07 10° SSE 02:10:33 12° SE 02:11:59 10° ESE visible
04 Aug 8.6 02:12:09 11° S 02:14:36 18° SE 02:17:16 10° E visible
05 Aug 8.0 02:16:17 14° SSW 02:18:42 27° SE 02:21:58 10° E visible
06 Aug 7.4 02:20:23 17° SSW 02:22:51 38° SSE 02:26:27 10° E visible
